Location: Shepherdstown, WV
(39.4326°N, 77.8042°W)
Time: 17:40:59
(UTC-05:00)

FENGYUN 1C DEB - Visible Passes

Search period start: 01 December 2021 00:00
Search period end: 11 December 2021 00:00
Orbit: 703 x 855 km, 99.0° (Epoch: 01 December)

Date Brightness Start Highest point End Pass type
(mag) Time Alt. Az. Time Alt. Az. Time Alt. Az.
01 Dec ? 05:55:58 10° SE 06:00:55 42° ENE 06:06:03 10° N visible
01 Dec ? 19:56:45 16° SSW 19:56:45 16° SSW 19:57:41 10° SSW visible
02 Dec ? 05:24:28 10° ESE 05:28:31 22° ENE 05:32:38 10° NNE visible
02 Dec ? 19:23:38 18° S 19:23:38 18° S 19:24:57 10° S visible
03 Dec ? 04:54:30 10° ENE 04:56:16 12° ENE 04:58:03 10° NE visible
03 Dec ? 06:29:12 10° SSE 06:34:31 83° ENE 06:40:04 10° NNW visible
03 Dec ? 18:50:31 14° SSE 18:50:31 14° SSE 18:51:26 10° SSE visible
04 Dec ? 05:56:55 10° SE 06:01:57 42° ENE 06:07:07 10° N visible
04 Dec ? 19:57:53 14° SSW 19:57:53 14° SSW 19:58:38 10° SSW visible
05 Dec ? 05:25:25 10° ESE 05:29:32 23° ENE 05:33:42 10° NNE visible
05 Dec ? 19:24:45 17° S 19:24:45 17° S 19:25:54 10° S visible
06 Dec ? 04:55:22 10° ENE 04:57:16 12° ENE 04:59:12 10° NE visible
06 Dec ? 06:30:10 10° SSE 06:35:33 84° ENE 06:41:07 10° NNW visible
06 Dec ? 18:51:37 14° SSE 18:51:37 14° SSE 18:52:23 10° SSE visible
07 Dec ? 05:57:52 10° SE 06:02:58 43° ENE 06:08:10 10° N visible
07 Dec ? 19:58:58 14° SSW 19:58:58 14° SSW 19:59:35 10° SSW visible
08 Dec ? 05:26:22 10° ESE 05:30:33 23° ENE 05:34:46 10° NNE visible
08 Dec ? 19:25:50 16° S 19:25:50 16° S 19:26:50 10° S visible
09 Dec ? 04:56:16 10° E 04:58:17 12° ENE 05:00:18 10° NE visible
09 Dec ? 06:31:08 10° SSE 06:36:34 85° ENE 06:42:09 10° NNW visible
09 Dec ? 18:52:41 13° SSE 18:52:41 13° SSE 18:53:20 10° SSE visible
10 Dec ? 05:58:51 10° SE 06:03:59 43° ENE 06:09:12 10° N visible
10 Dec ? 20:00:01 13° SSW 20:00:01 13° SSW 20:00:31 10° SSW visible
